DLH1745 DTTA-EDDM

Flight info

Callsign DLH1745
Flight time 1h 51m
Altitude 38000
Route TOBIB2A TOBIB A725 TANIT UA725 OSMAR DCT TIVUK DCT QUENN DCT VELAD DCT GINAR DCT SOTOV/N0362F240 T101 BETOS BETOS1A
Aircraft A21N/M-SDE2E3FGIJ1LORWXYZ/HB1

Departure

Time 2026-04-30 12:45
Airport Tunis Carthage International Airport (DTTA)

Arrival

Time 2026-04-30 14:37
Airport Munich Airport (EDDM)
Time Latitude Longitude Altitude Speed Heading
2026-04-30 12:02 36.84666 10.21961 36 ft 0 kts 198°
2026-04-30 12:36 36.84683 10.21967 36 ft 4 kts 189°
2026-04-30 12:36 36.84709 10.21969 36 ft 4 kts 171°
2026-04-30 12:36 36.84732 10.21958 36 ft 4 kts 137°
2026-04-30 12:36 36.84741 10.21942 36 ft 0 kts 103°
2026-04-30 12:40 36.84739 10.21954 36 ft 3 kts 103°
2026-04-30 12:41 36.84732 10.21992 36 ft 6 kts 103°
2026-04-30 12:41 36.84722 10.22048 36 ft 8 kts 103°
2026-04-30 12:41 36.84690 10.22107 36 ft 10 kts 161°
2026-04-30 12:41 36.84616 10.22096 36 ft 12 kts 194°
2026-04-30 12:42 36.84530 10.22089 36 ft 14 kts 143°
2026-04-30 12:42 36.84495 10.22205 36 ft 16 kts 116°
2026-04-30 12:42 36.84395 10.22230 36 ft 17 kts 195°
2026-04-30 12:42 36.84271 10.22199 36 ft 19 kts 190°
2026-04-30 12:43 36.84138 10.22161 36 ft 20 kts 193°
2026-04-30 12:43 36.83995 10.22120 36 ft 22 kts 192°
2026-04-30 12:43 36.83870 10.22116 36 ft 15 kts 121°
2026-04-30 12:43 36.83880 10.22252 36 ft 17 kts 65°
2026-04-30 12:44 36.83955 10.22375 37 ft 16 kts 51°
2026-04-30 12:44 36.83986 10.22398 37 ft 0 kts 14°
2026-04-30 12:44 36.84101 10.22432 37 ft 51 kts 12°
2026-04-30 12:45 36.84715 10.22592 36 ft 125 kts 12°
2026-04-30 12:45 36.85743 10.22876 145 ft 165 kts 12°
2026-04-30 12:45 36.86857 10.23160 844 ft 163 kts
2026-04-30 12:45 36.87981 10.22983 1457 ft 173 kts 335°
2026-04-30 12:46 36.89071 10.22155 1946 ft 193 kts 340°
2026-04-30 12:46 36.90423 10.21687 2563 ft 210 kts 347°
2026-04-30 12:46 36.91933 10.21228 3032 ft 237 kts 346°
2026-04-30 12:46 36.93609 10.20710 3625 ft 256 kts 346°
2026-04-30 12:47 36.95339 10.20167 4475 ft 263 kts 346°
2026-04-30 12:47 36.97158 10.19593 5421 ft 268 kts 345°
2026-04-30 12:47 36.98949 10.19022 6334 ft 271 kts 345°
2026-04-30 12:47 37.00787 10.18433 7255 ft 274 kts 344°
2026-04-30 12:48 37.02646 10.17838 8159 ft 278 kts 344°
2026-04-30 12:48 37.04531 10.17241 9015 ft 281 kts 343°
2026-04-30 12:48 37.06440 10.16638 9719 ft 284 kts 343°
2026-04-30 12:48 37.08353 10.16033 10119 ft 283 kts 343°
2026-04-30 12:49 37.10273 10.15425 10590 ft 291 kts 343°
2026-04-30 12:49 37.12298 10.14780 11018 ft 308 kts 343°
2026-04-30 12:49 37.14409 10.14112 11654 ft 317 kts 343°
2026-04-30 12:49 37.16555 10.13433 12480 ft 319 kts 342°
2026-04-30 12:50 37.18713 10.12753 13293 ft 321 kts 342°
2026-04-30 12:50 37.20888 10.12068 14065 ft 324 kts 342°
2026-04-30 12:50 37.23084 10.11372 14805 ft 328 kts 342°
2026-04-30 12:50 37.25315 10.10665 15507 ft 332 kts 342°
2026-04-30 12:51 37.27564 10.09950 16210 ft 336 kts 342°
2026-04-30 12:51 37.29844 10.09222 16894 ft 340 kts 342°
2026-04-30 12:51 37.32149 10.08489 17545 ft 344 kts 342°
2026-04-30 12:51 37.34480 10.07747 18204 ft 348 kts 342°
2026-04-30 12:52 37.36834 10.06997 18845 ft 351 kts 342°
2026-04-30 12:52 37.39216 10.06237 19485 ft 354 kts 342°
2026-04-30 12:52 37.41617 10.05472 20110 ft 357 kts 342°
2026-04-30 12:52 37.44035 10.04710 20735 ft 360 kts 342°
2026-04-30 12:53 37.46472 10.03941 21320 ft 362 kts 342°
2026-04-30 12:53 37.48926 10.03166 21882 ft 365 kts 342°
2026-04-30 12:53 37.51394 10.02384 22442 ft 368 kts 342°
2026-04-30 12:53 37.53889 10.01594 22989 ft 371 kts 342°
2026-04-30 12:54 37.56397 10.00799 23523 ft 373 kts 342°
2026-04-30 12:54 37.58919 10.00000 24053 ft 375 kts 342°
2026-04-30 12:54 37.61456 9.99196 24559 ft 378 kts 342°
2026-04-30 12:54 37.63981 9.98394 25045 ft 380 kts 342°
2026-04-30 12:55 37.66550 9.97577 25511 ft 383 kts 342°
2026-04-30 12:55 37.69136 9.96754 25967 ft 385 kts 342°
2026-04-30 12:55 37.71744 9.95925 26413 ft 387 kts 342°
2026-04-30 12:55 37.74364 9.95089 26847 ft 389 kts 342°
2026-04-30 12:56 37.76995 9.94257 27269 ft 391 kts 342°
2026-04-30 12:56 37.79640 9.93418 27681 ft 393 kts 342°
2026-04-30 12:56 37.82302 9.92561 28075 ft 395 kts 341°
2026-04-30 12:56 37.84963 9.91693 28460 ft 397 kts 341°
2026-04-30 12:57 37.87650 9.90834 28828 ft 399 kts 341°
2026-04-30 12:57 37.90347 9.89975 29184 ft 401 kts 341°
2026-04-30 12:57 37.93059 9.89104 29539 ft 403 kts 341°
2026-04-30 12:57 37.95784 9.88240 29881 ft 405 kts 341°
2026-04-30 12:58 37.98518 9.87355 30216 ft 406 kts 341°
2026-04-30 12:58 38.01260 9.86470 30536 ft 408 kts 341°
2026-04-30 12:58 38.04014 9.85572 30839 ft 410 kts 341°
2026-04-30 12:58 38.06780 9.84680 31138 ft 411 kts 341°
2026-04-30 12:59 38.09557 9.83791 31439 ft 413 kts 341°
2026-04-30 12:59 38.12358 9.82914 31714 ft 415 kts 341°
2026-04-30 12:59 38.15166 9.82031 32004 ft 416 kts 341°
2026-04-30 12:59 38.17978 9.81140 32290 ft 417 kts 341°
2026-04-30 13:00 38.20798 9.80237 32558 ft 418 kts 341°
2026-04-30 13:00 38.23646 9.79427 32806 ft 423 kts 346°
2026-04-30 13:00 38.26609 9.79192 33061 ft 431 kts 356°
2026-04-30 13:00 38.29603 9.79665 33356 ft 437 kts
2026-04-30 13:01 38.32587 9.80409 33631 ft 437 kts
2026-04-30 13:01 38.35569 9.81164 33906 ft 436 kts
2026-04-30 13:01 38.38543 9.81903 34180 ft 435 kts
2026-04-30 13:01 38.41517 9.82634 34434 ft 434 kts
2026-04-30 13:02 38.44481 9.83360 34657 ft 434 kts
2026-04-30 13:02 38.47451 9.84088 34854 ft 435 kts
2026-04-30 13:02 38.50379 9.84804 35062 ft 434 kts
2026-04-30 13:02 38.53386 9.85541 35273 ft 434 kts
2026-04-30 13:03 38.56307 9.86258 35481 ft 434 kts
2026-04-30 13:03 38.59313 9.86994 35680 ft 434 kts
2026-04-30 13:03 38.62277 9.87724 35866 ft 434 kts
2026-04-30 13:03 38.65235 9.88453 36076 ft 433 kts
2026-04-30 13:04 38.68152 9.89172 36258 ft 433 kts
2026-04-30 13:04 38.71156 9.89913 36421 ft 433 kts
2026-04-30 13:04 38.74081 9.90634 36551 ft 434 kts
2026-04-30 13:04 38.77042 9.91365 36739 ft 433 kts
2026-04-30 13:05 38.79996 9.92093 36965 ft 431 kts
2026-04-30 13:05 38.82975 9.92829 37203 ft 429 kts
2026-04-30 13:05 38.85846 9.93718 37414 ft 432 kts 11°
2026-04-30 13:06 38.91528 9.96277 37750 ft 432 kts 12°
2026-04-30 13:06 38.94354 9.97583 37869 ft 432 kts 12°
2026-04-30 13:06 38.97185 9.98883 37969 ft 432 kts 12°
2026-04-30 13:06 39.00014 10.00185 38071 ft 432 kts 12°
2026-04-30 13:07 39.02853 10.01484 38081 ft 432 kts 12°
2026-04-30 13:07 39.08506 10.04079 38057 ft 431 kts 12°
2026-04-30 13:08 39.14149 10.06664 38052 ft 430 kts 12°
2026-04-30 13:08 39.19782 10.09249 38050 ft 429 kts 12°
2026-04-30 13:09 39.25412 10.11827 38051 ft 430 kts 12°
2026-04-30 13:09 39.31032 10.14423 38044 ft 429 kts 12°
2026-04-30 13:10 39.36646 10.17007 38041 ft 428 kts 12°
2026-04-30 13:10 39.42257 10.19609 38063 ft 428 kts 12°
2026-04-30 13:11 39.47861 10.22214 38079 ft 427 kts 12°
2026-04-30 13:11 39.53459 10.24814 38079 ft 427 kts 12°
2026-04-30 13:12 39.59053 10.27406 38079 ft 427 kts 12°
2026-04-30 13:12 39.64643 10.30018 38085 ft 427 kts 12°
2026-04-30 13:13 39.72997 10.33927 38089 ft 427 kts 12°
2026-04-30 13:14 39.81382 10.37849 38090 ft 427 kts 12°
2026-04-30 13:14 39.89752 10.41763 38097 ft 426 kts 12°
2026-04-30 13:15 39.98130 10.45695 38097 ft 427 kts 12°
2026-04-30 13:16 40.03717 10.48326 38098 ft 427 kts 12°
2026-04-30 13:16 40.09294 10.50961 38101 ft 427 kts 12°
2026-04-30 13:17 40.17723 10.54496 38108 ft 416 kts
2026-04-30 13:18 40.26312 10.55498 38110 ft 413 kts 358°
2026-04-30 13:18 40.34896 10.56451 38111 ft 413 kts 358°
2026-04-30 13:19 40.40614 10.57104 38118 ft 413 kts 358°
2026-04-30 13:19 40.46341 10.57759 38119 ft 413 kts 358°
2026-04-30 13:20 40.52074 10.58411 38120 ft 413 kts 358°
2026-04-30 13:20 40.57806 10.59067 38120 ft 413 kts 358°
2026-04-30 13:21 40.63537 10.59725 38122 ft 414 kts 358°
2026-04-30 13:22 40.72115 10.60713 38119 ft 415 kts 358°
2026-04-30 13:22 40.80744 10.61709 38120 ft 415 kts 358°
2026-04-30 13:23 40.89368 10.62705 38120 ft 415 kts 358°
2026-04-30 13:24 41.00874 10.64042 38138 ft 415 kts 358°
2026-04-30 13:25 41.12395 10.65383 38150 ft 416 kts 358°
2026-04-30 13:26 41.25829 10.66955 38147 ft 416 kts 358°
2026-04-30 13:28 41.40270 10.68647 38145 ft 417 kts 358°
2026-04-30 13:28 41.48939 10.69668 38153 ft 417 kts 358°
2026-04-30 13:29 41.60508 10.71036 38152 ft 418 kts 358°
2026-04-30 13:31 41.74987 10.72755 38153 ft 418 kts 358°
2026-04-30 13:32 41.89462 10.74479 38153 ft 418 kts 358°
2026-04-30 13:33 42.01038 10.75865 38158 ft 418 kts 358°
2026-04-30 13:34 42.09719 10.76543 38167 ft 415 kts 355°
2026-04-30 13:35 42.21260 10.76888 38158 ft 415 kts 355°
2026-04-30 13:36 42.32800 10.77262 38171 ft 415 kts 355°
2026-04-30 13:36 42.41465 10.77548 38169 ft 415 kts 355°
2026-04-30 13:37 42.50075 10.77831 38170 ft 415 kts 355°
2026-04-30 13:38 42.58746 10.78114 38165 ft 416 kts 355°
2026-04-30 13:39 42.70306 10.78497 38163 ft 415 kts 355°
2026-04-30 13:40 42.78974 10.78782 38159 ft 416 kts 355°
2026-04-30 13:40 42.84759 10.78975 38163 ft 416 kts 355°
2026-04-30 13:41 42.90536 10.79169 38162 ft 416 kts 355°
2026-04-30 13:41 42.96324 10.79359 38166 ft 416 kts 355°
2026-04-30 13:42 43.02112 10.79556 38170 ft 416 kts 356°
2026-04-30 13:42 43.10793 10.79842 38170 ft 416 kts 356°
2026-04-30 13:43 43.16573 10.80036 38180 ft 416 kts 356°
2026-04-30 13:43 43.22356 10.80231 38181 ft 415 kts 356°
2026-04-30 13:44 43.28137 10.80427 38178 ft 415 kts 356°
2026-04-30 13:44 43.33912 10.80622 38183 ft 415 kts 356°
2026-04-30 13:45 43.42532 10.80912 38191 ft 415 kts 356°
2026-04-30 13:46 43.48304 10.81109 38189 ft 415 kts 356°
2026-04-30 13:46 43.54082 10.81305 38190 ft 415 kts 356°
2026-04-30 13:47 43.59849 10.81500 38197 ft 414 kts 356°
2026-04-30 13:47 43.65618 10.81873 38200 ft 417 kts 359°
2026-04-30 13:48 43.71412 10.82526 38206 ft 417 kts 360°
2026-04-30 13:48 43.77197 10.83183 38216 ft 417 kts 359°
2026-04-30 13:49 43.82975 10.83836 38223 ft 417 kts 360°
2026-04-30 13:49 43.88759 10.84490 38235 ft 417 kts 359°
2026-04-30 13:50 43.94546 10.85147 38243 ft 417 kts 360°
2026-04-30 13:50 44.03219 10.86133 38257 ft 417 kts
2026-04-30 13:51 44.08964 10.86786 38269 ft 416 kts
2026-04-30 13:51 44.14780 10.87450 38274 ft 417 kts
2026-04-30 13:52 44.20560 10.88114 38280 ft 416 kts
2026-04-30 13:52 44.26291 10.88771 38284 ft 416 kts
2026-04-30 13:53 44.32061 10.89434 38101 ft 415 kts
2026-04-30 13:53 44.34930 10.89766 37799 ft 414 kts
2026-04-30 13:53 44.37795 10.90097 37467 ft 412 kts
2026-04-30 13:54 44.40640 10.90425 37120 ft 410 kts
2026-04-30 13:54 44.43476 10.90753 36772 ft 407 kts
2026-04-30 13:54 44.46294 10.91079 36427 ft 405 kts
2026-04-30 13:54 44.49092 10.91403 36073 ft 403 kts
2026-04-30 13:55 44.51892 10.91727 35721 ft 404 kts
2026-04-30 13:55 44.54694 10.92050 35374 ft 406 kts
2026-04-30 13:55 44.57525 10.92377 35023 ft 408 kts
2026-04-30 13:55 44.60345 10.92705 34672 ft 407 kts
2026-04-30 13:56 44.63164 10.93033 34356 ft 407 kts
2026-04-30 13:56 44.65991 10.93362 34271 ft 407 kts
2026-04-30 13:56 44.71631 10.94020 34276 ft 407 kts
2026-04-30 13:57 44.77270 10.94679 34288 ft 406 kts
2026-04-30 13:57 44.82910 10.95338 34293 ft 406 kts
2026-04-30 13:58 44.91359 10.96332 34296 ft 406 kts
2026-04-30 13:59 44.96986 10.96995 34300 ft 406 kts
2026-04-30 13:59 45.02610 10.97659 34314 ft 405 kts
2026-04-30 14:00 45.08197 10.98320 34311 ft 405 kts
2026-04-30 14:00 45.16625 10.99318 34307 ft 405 kts
2026-04-30 14:01 45.22236 10.99981 34309 ft 404 kts
2026-04-30 14:01 45.27847 11.00645 34319 ft 405 kts
2026-04-30 14:02 45.33448 11.01317 34319 ft 404 kts
2026-04-30 14:02 45.39050 11.01989 34326 ft 404 kts
2026-04-30 14:03 45.44658 11.02664 34320 ft 404 kts
2026-04-30 14:03 45.50261 11.03343 34318 ft 404 kts
2026-04-30 14:04 45.55859 11.04010 34315 ft 404 kts
2026-04-30 14:04 45.61451 11.04679 34309 ft 403 kts
2026-04-30 14:05 45.67045 11.05359 34304 ft 403 kts
2026-04-30 14:05 45.72635 11.06032 34299 ft 403 kts
2026-04-30 14:06 45.81017 11.07044 34290 ft 403 kts
2026-04-30 14:07 45.89403 11.08051 34289 ft 404 kts
2026-04-30 14:08 45.97763 11.09065 34283 ft 403 kts
2026-04-30 14:08 46.06116 11.10069 34282 ft 398 kts
2026-04-30 14:09 46.11634 11.10725 34285 ft 398 kts
2026-04-30 14:10 46.19903 11.11739 34290 ft 398 kts
2026-04-30 14:10 46.25417 11.12414 34281 ft 398 kts
2026-04-30 14:11 46.30938 11.13091 34262 ft 398 kts
2026-04-30 14:11 46.36448 11.13766 34239 ft 397 kts
2026-04-30 14:12 46.41958 11.14436 34220 ft 397 kts
2026-04-30 14:12 46.47458 11.15134 34195 ft 397 kts
2026-04-30 14:13 46.52954 11.15817 34192 ft 396 kts
2026-04-30 14:13 46.58450 11.16504 34191 ft 396 kts
2026-04-30 14:14 46.63906 11.17176 34185 ft 389 kts
2026-04-30 14:14 46.69323 11.17862 34200 ft 395 kts
2026-04-30 14:15 46.74798 11.18539 34201 ft 395 kts
2026-04-30 14:15 46.80278 11.19228 34217 ft 395 kts
2026-04-30 14:16 46.85721 11.19908 34210 ft 395 kts
2026-04-30 14:16 46.91183 11.20606 34228 ft 391 kts
2026-04-30 14:17 46.96580 11.21165 34220 ft 392 kts
2026-04-30 14:17 47.02056 11.21558 34232 ft 395 kts
2026-04-30 14:18 47.06661 11.21871 34238 ft 395 kts
2026-04-30 14:18 47.14885 11.22422 34224 ft 393 kts
2026-04-30 14:19 47.20378 11.22795 32165 ft 406 kts
2026-04-30 14:19 47.23203 11.22989 30962 ft 416 kts
2026-04-30 14:19 47.26133 11.23181 29974 ft 416 kts
2026-04-30 14:20 47.28992 11.23370 28945 ft 417 kts
2026-04-30 14:20 47.31904 11.23568 27745 ft 421 kts
2026-04-30 14:20 47.37748 11.23961 25766 ft 418 kts
2026-04-30 14:21 47.40642 11.24162 24985 ft 412 kts
2026-04-30 14:21 47.43487 11.24356 24221 ft 406 kts
2026-04-30 14:21 47.49037 11.24734 22806 ft 393 kts
2026-04-30 14:22 47.51744 11.24916 22108 ft 387 kts
2026-04-30 14:22 47.57046 11.25120 20743 ft 376 kts
2026-04-30 14:22 47.59650 11.25108 20089 ft 371 kts
2026-04-30 14:23 47.64756 11.25077 18908 ft 365 kts
2026-04-30 14:23 47.69789 11.25060 17739 ft 358 kts
2026-04-30 14:24 47.74737 11.25068 16395 ft 352 kts
2026-04-30 14:24 47.77180 11.25077 15723 ft 350 kts
2026-04-30 14:25 47.82033 11.25106 14392 ft 347 kts
2026-04-30 14:25 47.86823 11.25148 13072 ft 342 kts
2026-04-30 14:26 47.91565 11.25202 11755 ft 339 kts
2026-04-30 14:26 47.93911 11.25232 11028 ft 335 kts
2026-04-30 14:26 47.98396 11.25280 10390 ft 305 kts
2026-04-30 14:27 48.00459 11.25290 10283 ft 289 kts
2026-04-30 14:27 48.02445 11.25288 9978 ft 283 kts
2026-04-30 14:27 48.04407 11.25266 9555 ft 281 kts
2026-04-30 14:28 48.08309 11.25218 8638 ft 280 kts
2026-04-30 14:28 48.10253 11.25190 8190 ft 279 kts
2026-04-30 14:28 48.12187 11.25155 7770 ft 277 kts
2026-04-30 14:28 48.14101 11.25110 7393 ft 274 kts
2026-04-30 14:29 48.17891 11.24992 6596 ft 271 kts
2026-04-30 14:29 48.21437 11.25962 5812 ft 256 kts 37°
2026-04-30 14:30 48.24827 11.31839 4600 ft 246 kts 54°
2026-04-30 14:31 48.26895 11.35854 3989 ft 237 kts 54°
2026-04-30 14:31 48.28790 11.39542 3947 ft 210 kts 54°
2026-04-30 14:31 48.29674 11.41263 3963 ft 208 kts 54°
2026-04-30 14:32 48.31374 11.44785 3984 ft 207 kts 66°
2026-04-30 14:32 48.31818 11.46829 3986 ft 206 kts 78°
2026-04-30 14:32 48.32047 11.48954 3994 ft 207 kts 83°
2026-04-30 14:33 48.32208 11.51107 4000 ft 207 kts 82°
2026-04-30 14:33 48.32537 11.55370 3978 ft 197 kts 83°
2026-04-30 14:33 48.32691 11.57355 3813 ft 187 kts 83°
2026-04-30 14:34 48.32836 11.59246 3623 ft 176 kts 83°
2026-04-30 14:34 48.32975 11.61043 3392 ft 170 kts 83°
2026-04-30 14:34 48.33110 11.62790 3180 ft 163 kts 83°
2026-04-30 14:34 48.33237 11.64430 2957 ft 154 kts 83°
2026-04-30 14:35 48.33460 11.67327 2527 ft 124 kts 84°
2026-04-30 14:35 48.33554 11.68607 2373 ft 123 kts 84°
2026-04-30 14:35 48.33663 11.69882 2206 ft 123 kts 83°
2026-04-30 14:36 48.33759 11.71161 2052 ft 124 kts 84°
2026-04-30 14:36 48.33861 11.72444 1879 ft 124 kts 84°
2026-04-30 14:36 48.33961 11.73731 1732 ft 124 kts 84°
2026-04-30 14:36 48.34062 11.75029 1552 ft 125 kts 84°
2026-04-30 14:37 48.34158 11.76273 1491 ft 102 kts 83°
2026-04-30 14:37 48.34214 11.77035 1491 ft 45 kts 82°
2026-04-30 14:37 48.34243 11.77332 1486 ft 24 kts 75°
2026-04-30 14:37 48.34322 11.77549 1482 ft 25 kts 53°
2026-04-30 14:38 48.34429 11.77761 1483 ft 26 kts 53°
2026-04-30 14:38 48.34540 11.77982 1485 ft 27 kts 55°
2026-04-30 14:38 48.34576 11.78204 1491 ft 22 kts 87°
2026-04-30 14:38 48.34588 11.78411 1480 ft 19 kts 81°
2026-04-30 14:39 48.34610 11.78618 1477 ft 21 kts 81°
2026-04-30 14:39 48.34629 11.78846 1491 ft 23 kts 83°
2026-04-30 14:39 48.34646 11.79092 1491 ft 25 kts 84°
2026-04-30 14:40 48.34686 11.79545 1478 ft 5 kts 52°
2026-04-30 14:40 48.34719 11.79552 1480 ft 6 kts 359°
2026-04-30 14:40 48.34772 11.79552 1481 ft 9 kts
2026-04-30 14:40 48.34843 11.79560 1481 ft 11 kts 355°
2026-04-30 14:41 48.34931 11.79544 1482 ft 14 kts 353°
2026-04-30 14:41 48.35006 11.79530 1484 ft 8 kts 352°
2026-04-30 14:41 48.35071 11.79517 1488 ft 11 kts 353°
2026-04-30 14:41 48.35153 11.79504 1485 ft 12 kts 354°
2026-04-30 14:42 48.35216 11.79494 1480 ft 6 kts 353°
2026-04-30 14:42 48.35258 11.79470 1479 ft 7 kts 341°
2026-04-30 14:42 48.35274 11.79413 1483 ft 6 kts 265°
2026-04-30 14:42 48.35271 11.79349 1478 ft 5 kts 263°
2026-04-30 14:43 48.35270 11.79338 1484 ft 0 kts 262°